Meteo Giornale » Osservazioni meteo Austria » Innsbruck

ore: 01:20 - Osservazioni Meteo Innsbruck
Lat. 47° 16' N Lon. 11° 21' E Alt. 581 metri s.l.m.

sereno Europe/Vienna

8 °C

Sereno

Temp. 24 Ore

3 °C

14 °C

Nord

5.5 Km/h

Dew point 8 °C

Umidità 100 %

Visibilità  10 Km

Il sole sorge alle ore 07:38

Il sole tramonta alle ore 18:19

Data e Ora Cielo e Fenomeni T °C DP °C Um. % Pres. hPa Vis. km Vento km/h
Oggi h: 01:20 sereno Sereno 8 8 100 1026 10 N 5.5
Oggi h: 00:50 nuvoloso Nuvoloso 9 8 93 1026 10 N 1.8
Oggi h: 00:20 molto_nuvoloso Molto Nuvoloso 9 8 93 1026 10 N 3.7
Ieri h: 23:50 nuvoloso Nuvoloso 9 8 93 1026 10 N 3.7
Ieri h: 23:20 nuvoloso Nuvoloso 10 9 93 1026 10 N 5.5
Ieri h: 22:50 molto_nuvoloso Molto Nuvoloso 10 9 93 1026 10 O/NO 7.4
Ieri h: 22:20 molto_nuvoloso Molto Nuvoloso 10 9 93 1027 10 N 5.5
Ieri h: 21:50 molto_nuvoloso Molto Nuvoloso 11 9 87 1027 10 N 3.7
Ieri h: 21:20 molto_nuvoloso Molto Nuvoloso 11 9 87 1027 10 SO 7.4
Ieri h: 20:50 coperto Coperto 11 9 87 1027 10 N 3.7
Ieri h: 20:20 molto_nuvoloso Molto Nuvoloso 11 9 87 1027 10 N 5.5
Ieri h: 19:50 coperto_pioggia Pioggia Debole 11 9 87 1027 10 N 1.8
Ieri h: 19:20 coperto_pioggia Pioggia Debole 11 8 81 1027 10 N 1.8
Ieri h: 18:50 coperto_pioggia Pioggia Debole 12 8 76 1027 10 N 3.7
Ieri h: 18:20 molto_nuvoloso Molto Nuvoloso 12 8 76 1027 10 N 3.7
Ieri h: 17:20 molto_nuvoloso Molto Nuvoloso 13 6 62 1026 10 N 3.7
Ieri h: 16:50 molto_nuvoloso Molto Nuvoloso 14 6 58 1026 10 N 3.7
Ieri h: 16:20 molto_nuvoloso Molto Nuvoloso 14 6 58 1026 10 N 3.7
Ieri h: 15:50 molto_nuvoloso Molto Nuvoloso 13 6 62 1026 10 O 7.4
Ieri h: 15:20 molto_nuvoloso Molto Nuvoloso 13 5 58 1026 10 N 3.7
Ieri h: 14:20 molto_nuvoloso Molto Nuvoloso 13 5 58 1027 10 N 3.7
Ieri h: 13:50 molto_nuvoloso Molto Nuvoloso 12 5 62 1027 10 N 1.8
Ieri h: 13:20 molto_nuvoloso Molto Nuvoloso 12 5 62 1028 10 N 1.8
Ieri h: 12:50 molto_nuvoloso Molto Nuvoloso 11 5 66 1028 10 N 5.5
Ieri h: 12:20 molto_nuvoloso Molto Nuvoloso 11 5 66 1028 10 N 5.5
Ieri h: 11:50 molto_nuvoloso Molto Nuvoloso 10 4 66 1029 10 N 5.5
Ieri h: 11:20 molto_nuvoloso Molto Nuvoloso 9 5 75 1029 10 N 5.5
Ieri h: 10:50 molto_nuvoloso Molto Nuvoloso 8 4 75 1029 10 N 3.7
Ieri h: 10:20 sereno Sereno 7 4 81 1029 10 N 3.7
Ieri h: 09:50 sereno Sereno 6 4 86 1029 10 N 5.5
Ieri h: 09:20 sereno Sereno 6 4 86 1029 10 N 1.8
Ieri h: 08:50 sereno Sereno 5 4 93 1029 10 N 5.5
Ieri h: 08:20 sereno Sereno 4 3 93 1029 10 N 5.5
Ieri h: 07:50 sereno Sereno 4 3 93 1029 10 N 3.7
Ieri h: 07:20 sereno Sereno 3 2 93 1029 10 N 3.7
Ieri h: 06:20 sereno Sereno 3 2 93 1028 10 O 7.4
Ieri h: 05:50 sereno Sereno 3 2 93 1028 10 N 3.7
Ieri h: 05:20 sereno Sereno 3 2 93 1028 10 N 3.7
Ieri h: 04:50 sereno Sereno 3 2 93 1029 10 N 1.8
Ieri h: 04:20 sereno Sereno 4 3 93 1028 10 O 9.3
Ieri h: 03:50 sereno Sereno 4 3 93 1029 10 O 7.4
Ieri h: 03:20 sereno Sereno 4 3 93 1029 10 O 11.1
Ieri h: 02:50 sereno Sereno 4 3 93 1029 10 O 7.4
Ieri h: 02:20 sereno Sereno 5 4 93 1029 10 N 3.7
Ieri h: 01:50 sereno Sereno 4 3 93 1029 10 N 1.8